GFSNGP_sfc_temp_273.txt.gz
Temp
38 40 39 39 37 33 30 33 33 33 33 37 38 36 36 35 33 32 33 34 33 32 31 31 33 34 35 35 36 36 36 35 35 35 36 36 36 36 36 36 37 36 36 37
37 38 38 37 38 36 36 33 32 33 37 40 33 33 32 32 33 32 33 36 35 35 33 33 34 34 36 35 35 36 35 35 36 36 36 36 36 36 36 35 35 35 35 35
33 34 36 36 36 37 34 35 39 34 41 36 34 35 34 32 34 35 35 36 35 35 34 34 34 36 34 35 35 35 35 36 36 36 36 36 36 35 35 34 33 33 34 34
26 32 30 41 38 41 41 39 39 38 38 38 38 36 35 34 35 34 36 36 36 35 34 34 34 34 34 35 35 35 35 35 36 36 36 35 34 34 33 33 32 33 33 33
28 28 39 38 37 38 39 45 45 44 42 38 35 34 35 36 36 38 37 36 36 35 34 33 34 34 34 34 34 35 35 35 36 35 35 34 33 32 32 32 32 32 33 33
21 26 33 42 40 43 42 39 45 46 39 35 36 33 36 36 38 35 36 37 35 34 34 33 33 33 33 33 33 33 35 35 36 36 36 34 33 33 32 32 34 34 34 33
24 23 35 42 43 43 36 43 42 43 38 36 36 40 38 35 35 37 37 36 36 34 33 33 33 33 32 32 32 35 36 36 36 36 36 35 34 33 32 32 33 32 33 33
23 24 33 42 42 42 47 40 43 40 38 39 36 36 34 34 34 35 35 35 35 33 32 32 33 32 32 31 34 35 35 36 36 35 38 38 33 33 33 32 31 31 32 32
35 39 45 43 44 45 43 45 42 41 39 39 37 35 34 33 33 35 35 35 35 34 32 32 32 33 31 32 34 35 34 34 35 36 36 36 33 33 33 32 31 32 32 31
38 45 45 44 47 43 45 45 44 42 40 39 37 35 34 34 33 34 34 34 34 33 32 31 32 33 33 34 35 35 34 34 34 34 36 35 35 35 33 33 32 33 32 32
38 45 44 47 46 51 46 45 45 41 40 40 38 35 36 35 35 35 35 34 34 33 33 33 33 33 33 34 35 34 34 34 34 34 33 33 34 34 35 35 35 33 34 33
45 51 49 52 48 46 45 45 45 43 39 38 39 37 36 35 36 36 34 33 33 32 32 33 33 33 34 34 34 33 33 34 34 34 33 33 32 33 42 44 46 47 48 43
54 48 48 49 49 46 45 45 44 44 43 38 37 39 37 35 35 38 34 34 34 33 34 33 34 33 34 34 34 34 32 33 33 36 33 32 32 31 31 36 43 45 46 46
47 46 48 49 52 47 45 44 47 43 42 41 40 38 38 35 36 36 34 36 36 34 34 33 34 34 35 35 34 34 33 39 34 32 32 31 31 32 31 31 31 33 40 43
53 49 55 46 44 45 42 42 41 40 39 37 38 38 37 35 36 36 36 35 35 34 34 34 34 34 36 36 35 34 34 33 33 32 32 33 32 32 32 31 31 31 32 37
59 55 45 46 50 47 42 41 41 40 38 38 38 38 38 38 37 36 35 34 34 33 34 34 34 35 36 36 35 34 33 39 39 33 33 32 32 32 32 31 30 30 30 31
47 45 43 42 46 47 44 45 45 45 42 39 39 38 37 36 34 34 34 35 36 35 35 35 35 35 36 36 36 35 33 33 38 34 32 32 32 31 31 30 30 30 29 33
55 59 56 53 56 49 43 45 45 42 42 42 39 38 37 35 37 35 34 33 31 32 34 35 36 36 36 37 37 36 35 33 32 32 32 32 31 31 30 30 30 30 29 31
60 56 55 53 50 48 46 45 45 45 42 40 38 38 39 39 38 36 35 33 32 31 33 34 40 39 37 37 39 38 37 34 32 31 31 34 30 29 29 29 29 29 29 29
54 55 53 51 47 46 47 47 45 43 42 40 40 38 37 37 36 35 35 34 35 35 34 36 38 36 37 37 42 37 36 34 31 30 31 29 28 28 28 30 30 29 31 31
47 49 49 49 49 48 48 46 44 42 41 40 39 38 38 38 36 36 33 33 33 36 35 38 36 36 37 37 40 36 35 34 33 30 30 29 29 30 31 32 33 33 32 32
43 44 44 45 44 45 43 42 44 41 39 39 39 38 37 35 35 34 37 36 33 40 36 36 35 37 36 40 37 35 35 35 34 34 34 34 33 33 32 32 32 33 33 33
42 42 43 42 43 42 40 40 41 41 39 38 38 37 37 36 36 34 32 32 34 39 35 35 37 40 40 39 36 36 35 35 34 34 34 34 33 33 32 33 32 33 32 32
42 42 41 41 41 39 39 38 38 38 38 38 38 38 37 34 34 35 35 37 38 39 34 35 39 42 42 37 36 35 35 35 34 34 34 35 33 33 33 33 32 33 33 33
42 42 41 39 39 38 38 36 35 34 34 35 35 37 37 38 36 32 34 36 40 37 34 40 42 42 39 36 36 35 35 35 34 34 33 33 32 33 31 34 34 33 32 33
41 41 39 38 38 37 35 35 33 32 32 31 32 34 35 35 35 35 35 37 38 36 34 37 38 39 36 36 35 35 35 35 35 34 34 33 33 33 33 33 33 33 33 33
42 43 40 40 38 36 35 34 33 32 34 32 31 31 33 33 34 35 36 36 36 34 35 36 37 37 35 35 34 35 35 35 35 35 34 34 33 34 33 34 33 33 33 33

GFSNGP_sfc_temp_276.txt.gz
Temp
37 39 37 38 37 33 30 33 35 34 33 38 39 37 37 36 32 31 31 33 32 31 30 30 31 33 34 34 35 35 35 34 34 34 35 35 35 35 35 35 35 35 35 35
36 36 36 36 37 35 35 33 33 31 36 41 35 33 33 33 33 32 33 35 35 34 32 31 33 33 34 34 34 34 34 34 35 35 35 35 35 34 34 34 34 34 34 34
33 33 35 35 36 35 33 33 39 35 43 37 35 35 35 32 35 35 35 35 35 35 34 33 33 35 33 34 34 34 34 35 35 35 35 34 34 34 33 32 32 32 32 33
27 32 29 42 37 39 39 40 38 38 39 38 39 37 36 35 36 36 36 36 36 35 34 33 34 34 34 34 34 34 34 34 35 35 34 34 33 33 32 31 31 31 32 32
29 29 39 41 37 38 38 43 44 43 43 39 35 33 37 37 36 39 38 38 38 36 34 33 33 34 33 33 33 33 34 34 35 34 34 34 32 31 31 31 31 31 32 32
22 27 32 43 39 41 39 38 43 45 40 35 36 36 40 37 38 35 36 36 35 34 33 33 32 33 32 32 32 32 34 35 35 35 34 33 33 32 32 31 32 34 34 32
24 25 35 43 42 41 35 43 40 41 37 34 38 42 39 34 35 37 36 35 35 34 34 34 32 32 31 31 31 34 35 35 35 35 34 34 33 32 32 32 32 32 33 33
24 25 34 42 41 42 47 41 41 39 38 39 36 37 34 34 33 34 34 34 35 33 32 32 32 32 30 30 33 34 34 35 34 34 36 38 33 32 32 31 31 31 31 32
35 39 45 42 45 45 44 45 42 39 39 40 38 37 35 34 33 34 34 35 34 34 32 31 31 32 31 32 34 34 33 33 33 34 35 35 32 32 32 31 31 31 32 31
39 45 44 45 47 44 45 46 44 42 41 38 39 37 35 33 32 33 34 33 33 32 32 31 31 32 32 33 34 34 33 32 33 32 34 34 34 34 32 31 31 32 33 32
37 45 47 49 46 48 47 44 45 43 42 40 39 37 36 34 33 35 34 33 34 34 33 33 32 32 32 33 33 32 32 33 33 33 32 32 33 33 34 34 34 32 33 34
42 50 50 51 47 46 44 45 44 44 41 39 39 39 36 35 36 35 34 33 33 33 33 32 33 33 33 33 33 32 31 32 32 32 32 32 32 32 41 43 45 46 47 43
54 47 49 50 48 47 48 48 45 44 44 42 38 38 38 35 35 38 35 33 34 33 34 33 33 33 34 34 33 33 31 32 32 35 32 31 31 31 31 36 42 44 45 46
48 45 47 49 52 47 47 46 46 43 42 42 40 37 37 35 36 35 34 35 35 34 33 33 34 34 35 34 34 33 32 39 32 32 31 31 31 31 31 31 31 32 38 41
57 55 53 59 47 49 46 44 44 43 41 39 38 38 37 35 36 36 36 34 34 33 34 33 33 34 35 35 34 33 32 32 32 31 31 32 31 31 31 31 31 31 31 36
57 58 55 49 51 51 45 44 44 45 40 39 38 37 38 38 37 36 34 34 33 32 34 34 34 35 36 35 34 34 33 38 37 32 32 32 31 31 30 30 30 30 30 30
51 51 51 44 46 46 44 49 48 50 43 40 42 39 36 35 33 33 34 35 36 35 35 34 35 34 36 36 35 34 33 33 38 33 32 31 31 30 30 29 29 29 29 31
55 57 57 54 55 50 45 45 44 44 43 45 40 38 36 36 37 36 34 33 31 31 34 35 35 35 36 36 36 35 33 32 32 32 32 31 31 30 29 29 29 29 28 31
48 51 55 54 52 50 48 45 44 46 44 40 38 38 39 39 39 37 34 33 32 32 33 34 39 38 35 37 37 35 33 32 32 31 31 34 31 29 28 28 28 28 28 31
43 44 46 50 54 53 52 50 52 44 43 40 40 38 37 38 38 35 35 34 35 36 34 35 38 35 35 37 42 35 35 34 35 31 31 29 29 28 28 30 29 29 31 32
40 42 42 44 46 48 48 52 44 43 41 40 39 39 40 39 38 36 34 33 34 36 35 38 37 35 36 37 40 37 34 34 35 33 30 29 29 29 30 32 33 33 33 33
40 40 40 41 43 44 45 45 44 43 39 39 40 39 37 35 35 35 37 37 33 40 36 36 36 38 37 40 37 36 35 35 34 33 32 33 33 33 32 32 32 33 33 33
41 41 41 40 40 42 43 41 40 40 38 37 38 37 38 37 37 34 32 33 34 39 36 35 38 41 41 39 37 36 35 34 34 34 34 34 34 33 32 33 33 33 33 33
42 42 41 41 39 39 38 39 38 38 37 36 37 37 37 33 34 37 35 37 38 39 35 36 40 42 42 38 37 35 34 34 34 34 34 35 33 33 33 33 33 33 34 33
40 41 40 39 37 38 37 35 35 35 34 33 34 35 36 37 35 33 33 36 40 38 35 41 42 43 39 38 37 35 34 34 34 34 34 33 33 33 32 33 33 33 33 33
40 39 40 41 38 37 36 35 34 33 32 31 31 32 33 33 33 34 34 36 38 37 35 38 39 39 38 37 36 35 34 34 35 34 34 33 33 33 33 34 33 34 34 34
41 41 40 39 41 39 38 36 34 33 34 32 32 31 31 32 33 33 36 35 36 34 35 37 38 38 37 37 35 34 34 34 35 34 34 34 33 34 34 34 34 34 34 34

GFSNGP_sfc_temp_279.txt.gz
Temp
40 41 40 42 40 35 33 39 42 43 38 47 47 45 46 45 41 38 38 38 39 39 39 40 40 40 41 42 42 42 42 42 42 42 43 43 43 43 43 43 43 43 43 43
40 40 39 38 39 38 38 37 37 39 41 48 47 43 42 43 40 39 39 40 40 40 39 39 39 40 40 41 41 42 41 42 42 42 42 42 42 42 42 42 42 42 42 41
38 37 38 38 39 38 37 37 43 39 49 45 44 40 43 42 41 41 41 41 40 40 40 40 40 41 40 41 42 41 41 42 42 42 41 42 41 41 41 41 41 41 42 41
34 38 32 46 42 42 41 42 41 42 43 45 45 45 44 43 43 43 42 42 42 42 41 41 41 40 42 41 40 40 40 41 42 42 41 41 41 40 41 41 40 40 41 41
32 34 41 48 41 40 42 47 45 45 48 44 43 45 46 44 44 46 44 44 45 44 43 42 40 41 40 39 40 39 40 41 41 41 41 40 40 40 41 40 40 40 41 40
27 30 34 46 44 44 44 42 47 44 44 40 43 45 51 47 44 43 43 43 42 41 41 41 40 40 39 39 38 38 40 40 42 41 40 40 40 40 40 40 40 40 40 42
30 29 38 46 45 44 40 46 46 44 42 39 43 50 47 42 40 42 41 40 41 40 41 41 39 39 38 38 38 40 41 41 41 41 40 41 40 40 40 40 39 39 39 41
28 27 35 44 44 45 50 46 47 44 42 41 43 44 44 43 39 38 39 38 40 39 39 39 39 38 38 37 41 40 40 40 40 41 41 43 40 40 40 39 39 39 39 40
39 41 47 44 48 47 47 47 48 46 45 42 42 42 44 42 39 39 39 39 39 40 38 37 38 39 38 39 39 39 39 39 40 40 41 41 40 40 40 40 39 39 39 39
41 47 47 46 49 48 47 48 48 48 48 42 44 42 42 41 39 38 38 38 39 38 37 36 37 37 39 38 39 39 38 39 39 39 40 40 40 40 39 39 39 39 39 39
39 45 49 51 48 50 49 48 46 46 47 45 42 42 42 41 39 39 39 38 38 38 38 38 37 37 37 38 38 38 38 39 39 39 40 40 40 40 40 41 40 39 40 40
42 50 52 53 51 50 49 50 50 47 44 44 43 44 41 41 40 39 38 37 37 38 38 38 37 37 37 38 38 38 38 38 38 38 39 39 39 39 42 43 45 45 46 46
52 48 49 50 50 50 51 51 50 47 45 45 44 43 41 40 39 40 38 37 37 37 38 37 37 37 38 38 38 37 37 38 38 40 39 39 38 38 38 40 42 43 44 45
49 46 50 52 52 54 51 52 51 49 47 45 44 41 41 40 39 38 38 39 39 37 37 37 37 37 38 38 38 38 37 39 37 38 38 38 38 38 38 37 37 39 40 42
53 52 54 57 58 56 49 48 48 50 50 45 42 42 40 39 39 40 41 38 38 37 37 36 36 37 38 38 37 37 37 37 38 38 37 38 38 38 38 37 37 37 38 39
52 52 52 52 54 56 54 50 46 52 47 46 43 41 42 42 41 39 38 37 36 35 37 36 37 39 38 38 38 37 37 38 38 37 37 37 37 37 37 37 37 37 37 37
43 44 47 48 50 52 52 54 52 53 49 44 46 44 40 39 37 36 36 37 38 39 38 37 38 37 38 38 38 38 37 38 40 38 37 37 37 36 36 36 36 36 36 36
41 43 45 46 47 50 52 53 49 48 46 49 45 41 38 37 40 39 38 36 36 36 37 38 38 37 38 38 38 38 37 36 37 37 37 36 36 36 35 35 35 34 35 35
41 41 42 43 44 44 47 51 53 50 51 47 42 41 42 42 42 41 38 35 34 35 36 37 39 39 37 38 39 37 37 36 36 36 36 36 37 35 34 34 34 33 33 33
39 41 41 41 42 42 43 46 51 52 48 46 44 42 40 41 41 38 37 36 38 38 38 37 39 37 37 38 41 37 36 36 36 36 35 35 34 33 33 33 33 33 33 33
39 40 39 40 40 41 42 44 45 46 45 42 41 42 42 43 39 39 36 36 39 39 37 39 39 37 37 38 41 37 36 36 36 36 35 35 34 33 33 33 34 34 33 34
38 38 39 40 39 39 41 42 42 42 42 39 40 41 39 38 38 38 40 39 36 41 38 38 38 38 38 41 39 37 36 36 36 36 35 34 33 34 34 34 33 34 34 34
39 40 39 39 38 38 39 40 39 38 38 38 38 37 39 39 39 36 34 37 36 41 38 38 39 41 41 39 38 38 37 36 36 36 35 35 35 35 34 34 34 35 34 35
41 41 41 40 39 39 37 38 37 37 36 37 37 38 37 34 35 38 38 38 39 41 37 38 41 42 42 38 38 37 37 36 35 36 36 36 35 34 34 34 34 34 35 35
41 41 41 40 38 39 38 37 36 36 35 35 36 37 37 38 38 35 35 37 40 40 37 41 43 43 40 38 38 37 37 36 35 35 35 35 34 34 34 35 35 34 35 34
38 40 40 40 39 38 37 35 33 34 34 34 35 35 35 35 36 35 35 37 38 38 36 39 40 40 38 38 37 36 36 35 36 35 35 35 35 34 34 35 35 35 35 35
36 41 40 40 41 39 37 36 35 33 33 32 33 34 34 34 34 34 36 35 37 35 35 38 39 40 38 38 37 37 36 36 36 35 35 35 35 34 34 35 35 35 35 35

GFSNGP_sfc_temp_285.txt.gz
Temp
62 62 57 57 57 51 47 56 53 59 60 66 69 70 73 72 69 67 64 61 60 59 60 61 60 60 59 59 58 58 56 55 54 55 55 55 54 54 54 53 53 54 52 52
56 62 58 53 56 56 54 54 55 57 56 68 71 72 72 73 71 66 64 62 61 60 60 60 60 59 58 58 57 57 55 55 56 55 55 53 53 53 53 52 53 53 52 51
51 56 54 50 55 56 57 58 58 53 63 71 66 66 67 67 67 67 66 64 62 60 60 61 61 60 57 57 58 56 55 55 55 55 53 53 53 52 51 52 53 52 51 51
50 56 41 62 60 58 60 60 61 59 61 64 64 65 67 67 67 69 67 65 64 62 60 61 61 60 59 58 56 55 54 55 55 55 53 53 52 51 52 53 51 51 50 50
46 49 57 61 59 53 53 59 64 62 63 63 61 60 64 68 69 68 70 68 67 65 62 61 60 60 58 56 55 54 53 54 55 54 53 52 51 51 52 52 51 51 51 49
48 41 42 57 57 59 58 52 62 60 61 59 59 60 62 62 63 64 66 68 66 65 64 61 60 59 56 55 54 53 53 53 55 55 53 52 52 51 52 52 50 51 50 50
46 44 53 66 58 58 50 55 62 62 62 59 58 64 66 64 64 63 63 64 64 63 61 60 60 58 54 55 53 55 55 54 54 54 52 53 52 52 51 50 50 49 49 50
46 43 41 60 55 54 63 62 62 64 63 59 61 62 63 62 61 61 59 59 59 59 59 61 59 56 54 53 57 56 55 53 52 52 53 53 51 50 50 50 48 49 49 49
52 53 64 62 65 66 61 61 63 62 64 63 61 60 61 61 61 62 60 59 59 57 57 58 58 56 53 55 57 55 53 52 51 52 52 52 50 50 49 50 48 48 49 48
58 63 64 67 67 67 66 63 65 65 63 62 59 61 61 62 62 61 61 58 58 55 55 55 57 55 55 57 56 54 52 51 51 51 50 51 51 50 49 49 48 48 48 48
58 63 65 67 67 68 67 65 63 65 65 62 60 60 62 62 62 62 61 59 58 56 54 54 55 54 54 56 56 52 51 52 51 52 50 49 50 49 49 51 50 48 48 48
55 66 64 66 68 66 64 63 65 64 63 64 62 59 61 60 62 62 61 59 56 55 54 54 54 52 53 54 54 51 50 51 51 50 49 49 48 48 49 48 47 46 46 45
61 67 67 67 66 68 65 66 66 65 66 64 64 63 62 60 61 60 59 58 56 53 53 53 52 52 52 52 52 51 51 51 51 49 49 48 47 46 44 45 46 45 45 46
65 64 60 63 62 67 68 68 66 67 66 65 64 63 60 58 59 58 57 57 56 54 53 52 51 51 52 51 50 50 51 50 50 48 47 47 47 47 47 45 44 44 44 44
63 65 65 65 64 64 64 63 61 62 64 64 66 64 62 58 57 58 59 57 55 53 52 51 50 50 51 50 49 49 50 49 48 48 47 47 46 46 46 45 44 44 45 41
61 58 58 57 58 60 60 60 58 59 60 61 62 63 63 62 59 58 58 56 51 47 50 50 49 51 50 49 48 48 48 48 47 46 46 44 44 44 44 44 44 44 44 44
51 51 55 55 54 54 54 55 55 55 55 55 57 59 61 61 59 56 54 54 52 51 51 50 49 51 50 49 47 47 47 46 46 46 44 44 44 44 45 44 44 43 44 44
54 54 53 52 51 51 51 53 53 54 53 55 56 56 56 57 57 57 56 54 52 49 49 51 51 50 49 48 47 46 46 45 44 43 43 43 44 45 45 44 43 43 42 40
52 51 52 52 52 51 51 51 52 53 53 53 52 52 54 55 57 58 58 56 50 47 48 50 48 48 47 46 46 46 46 44 43 43 43 43 43 44 44 43 42 42 42 39
50 51 51 51 52 52 50 52 52 51 51 51 50 49 50 52 55 57 57 54 52 49 52 49 48 47 47 46 46 45 45 44 42 42 42 42 43 42 43 42 42 41 40 39
49 49 49 49 49 50 50 51 50 49 50 49 47 47 48 50 52 54 53 51 53 50 49 46 46 46 46 45 44 44 44 43 43 42 41 41 42 42 42 42 41 40 39 38
49 48 48 49 47 47 48 48 48 48 48 47 47 47 46 47 50 51 54 50 50 46 46 45 45 46 45 45 43 43 43 43 43 42 41 41 41 41 41 41 40 40 39 37
50 50 49 49 48 48 47 47 45 44 44 46 45 45 44 45 47 46 44 51 48 46 44 43 45 45 45 44 43 42 43 42 42 42 42 41 41 40 41 40 40 40 38 37
50 50 49 50 50 48 46 46 43 43 43 45 46 46 44 42 44 48 49 46 44 44 43 43 44 45 45 43 43 42 42 43 42 42 41 42 41 41 40 40 39 39 38 38
49 49 49 48 48 48 48 47 43 42 41 41 44 45 45 45 41 42 44 44 43 42 43 44 44 44 43 43 43 41 42 42 42 41 41 40 39 39 40 39 38 38 38 37
48 47 48 48 48 48 48 48 44 42 38 37 40 42 42 42 42 43 43 42 42 42 41 41 41 42 42 42 42 42 42 42 42 41 41 40 40 39 39 38 38 38 38 37
47 45 47 47 49 50 49 47 44 43 40 37 36 37 39 40 40 40 41 41 41 41 40 40 41 41 41 42 42 42 42 42 41 41 41 41 40 39 39 38 38 38 37 37

GFSNGP_sfc_temp_288.txt.gz
Temp
55 55 53 51 50 46 40 49 41 50 48 56 58 59 58 59 58 57 55 54 53 50 49 49 49 50 51 50 49 49 47 46 45 45 46 46 45 45 45 45 45 45 45 44
48 55 54 49 51 50 48 48 49 50 49 60 59 56 57 57 58 56 56 56 55 54 52 51 52 51 52 50 50 49 46 46 47 47 46 45 44 44 44 44 43 44 43 43
40 50 47 42 49 50 49 51 50 43 52 54 55 56 55 55 57 56 57 56 55 54 54 54 52 54 50 48 49 48 47 47 47 47 46 45 45 44 43 41 42 42 42 42
35 44 33 52 54 54 53 55 54 53 55 55 55 54 54 55 54 55 57 57 55 54 53 52 50 50 49 49 47 47 46 47 47 47 45 45 44 43 42 41 41 41 41 42
34 37 48 54 54 49 47 50 56 53 54 55 55 52 49 55 54 53 56 57 56 53 50 50 50 50 49 47 46 46 46 47 47 47 45 45 43 42 41 41 40 41 42 41
34 31 33 48 50 52 51 41 55 54 52 50 51 44 49 52 53 53 54 56 55 53 52 50 49 49 48 46 47 46 47 47 47 47 45 44 43 42 42 41 42 43 43 41
35 33 44 55 52 52 38 43 54 55 52 48 47 52 53 56 55 53 52 53 53 51 50 49 49 48 46 46 47 49 47 47 47 46 45 44 43 43 42 41 42 40 41 41
33 32 34 52 48 46 51 50 55 54 53 50 51 53 54 55 54 54 51 52 51 50 49 49 49 48 45 46 48 47 47 47 46 45 47 47 42 42 42 41 39 38 39 39
42 43 54 53 52 54 54 53 51 51 51 51 50 50 53 53 54 54 53 51 51 48 48 49 48 49 46 47 47 47 45 44 43 45 45 45 42 40 40 41 39 39 40 38
49 54 56 56 57 57 55 54 55 54 52 52 51 52 52 53 54 54 54 52 50 48 47 46 47 49 48 47 48 46 45 43 42 42 43 43 45 43 40 40 39 41 40 39
49 53 56 59 58 59 58 57 54 55 55 54 53 52 52 52 53 54 54 52 51 48 46 46 46 46 46 47 47 46 45 43 43 43 45 41 43 41 43 42 43 40 40 41
48 58 55 54 55 58 55 54 57 56 55 56 53 52 53 51 52 53 53 52 50 49 47 46 46 46 45 46 47 47 45 44 43 42 40 41 40 40 48 48 49 48 47 43
57 57 58 58 56 56 57 57 59 56 56 54 55 55 54 52 52 53 53 52 50 49 48 46 46 46 46 47 47 46 45 45 44 45 41 39 39 38 37 43 48 48 47 47
57 53 51 54 53 58 58 57 57 56 56 56 56 56 55 52 52 51 50 52 51 49 47 46 46 46 47 47 47 46 45 48 42 41 39 38 39 39 39 38 36 36 44 45
58 59 58 58 56 54 55 54 53 53 54 53 54 53 53 52 52 50 51 51 50 49 47 46 46 46 46 46 46 45 45 44 43 40 39 40 39 38 39 39 38 38 36 42
57 55 52 51 50 52 51 50 48 48 49 49 49 50 51 52 52 53 50 50 46 45 47 46 46 47 46 46 45 44 44 47 45 41 40 40 38 38 37 37 37 37 36 36
47 44 47 46 47 47 47 49 48 47 48 48 48 49 49 50 49 49 51 49 47 47 46 46 47 46 47 46 45 44 43 44 46 41 39 39 39 37 37 36 35 35 36 40
49 47 46 45 45 45 45 47 47 47 46 47 47 47 46 46 46 48 49 51 47 44 44 45 46 46 46 46 45 44 43 42 43 40 40 39 38 38 37 37 36 35 35 38
50 48 47 48 46 46 45 46 46 47 47 46 45 44 45 46 46 47 48 48 48 42 44 44 46 46 45 45 45 43 42 42 41 40 40 41 40 38 38 37 36 35 35 34
47 48 48 47 46 46 45 46 46 45 46 45 44 43 42 44 45 45 45 44 46 48 45 44 45 45 46 45 47 43 42 41 39 39 38 38 38 38 38 38 36 36 36 34
46 47 46 46 45 45 44 45 46 46 47 45 43 42 42 43 43 43 42 41 45 46 45 44 43 43 44 45 45 42 41 41 39 38 38 38 38 37 37 37 37 37 36 35
46 45 45 45 43 43 44 43 43 45 44 43 42 42 41 40 41 41 42 41 43 46 43 40 40 44 42 45 43 41 40 41 40 39 38 38 38 37 37 37 37 37 36 34
45 45 45 44 43 43 43 42 44 42 41 42 40 41 40 40 39 37 35 41 40 42 41 38 41 45 46 43 41 41 40 41 40 39 38 38 38 38 38 37 36 37 35 34
44 44 44 44 43 41 40 41 41 40 40 42 42 41 41 38 38 39 39 41 42 42 40 39 41 45 46 41 40 40 40 40 40 39 39 40 38 37 37 37 36 36 35 35
43 43 42 41 40 39 41 41 40 39 38 38 40 41 42 40 36 38 39 39 41 40 38 41 44 44 40 39 39 40 40 40 40 39 39 38 37 36 37 36 36 36 35 35
41 41 41 41 40 40 40 45 42 40 37 34 37 40 39 39 38 38 38 40 39 39 38 38 36 36 37 38 40 40 40 40 40 39 39 39 37 37 37 36 36 37 35 35
41 43 39 39 41 44 41 39 37 37 38 35 33 35 37 37 36 37 38 35 37 37 38 37 38 38 37 39 40 40 40 40 40 39 39 38 38 38 37 37 36 36 35 35